Regional Weather Roundup
Issued by NWS Huntsville, AL

Home | Current Version | Previous Version | Text Only | Print | Product List | Glossary On
Versions: 1 2 3 4 5 6 7 8 9 10 11 12 13 14 15 16 17 18 19 20 21 22 23 24 25 26 27
000
ASUS44 KHUN 202310
RWRHUN

WEATHER ROUNDUP FOR THE TENNESSEE VALLEY
NATIONAL WEATHER SERVICE HUNTSVILLE AL
500 PM CST SAT JAN 20 2018

ALZ001>004-210000-
NORTHWEST ALABAMA

CITY           SKY/WX    TMP DP  RH WIND       PRES   REMARKS
COURTLAND HCN    N/A     61 N/A N/A S9          N/A
RUSSELLVILLE     N/A     59 N/A N/A MISG        N/A
SHOALS AIRPORT FAIR      61  38  42 S6        30.17R
SHOALS TVA RES   N/A     63 N/A N/A MISG        N/A
$$

ALZ005>007-016-210000-
NORTH CENTRAL ALABAMA

CITY           SKY/WX    TMP DP  RH WIND       PRES   REMARKS
CULLMAN AG STN   N/A     59 N/A N/A SW6         N/A
DECATUR AP     FAIR      56  37  49 S8        30.18F
HUNTSVILLE AP  FAIR      58  41  53 S8        30.18S
MERIDIANVILLE  FAIR      59  34  38 SW8       30.18F
REDSTONE ARSN  FAIR      57  37  46 S8        30.17S
VINEMONT AP    FAIR      57  37  45 S6        30.22R
$$

ALZ008>010-210000-
NORTHEAST ALABAMA

CITY           SKY/WX    TMP DP  RH WIND       PRES   REMARKS
ALBERTVILLE    FAIR      57  43  58 SW5       30.19S
FORT PAYNE     FAIR      57  32  38 MISG      30.20S
SCOTTSBORO AP  FAIR      59  36  41 CALM      30.20S
SCOTTSBORO HCN   N/A     57 N/A N/A MISG        N/A
VALLEY HEAD      N/A     52 N/A N/A MISG        N/A
$$

TNZ076-096-097-210000-
SOUTHEASTERN MIDDLE TENNESSEE

CITY           SKY/WX    TMP DP  RH WIND       PRES   REMARKS
TULLAHOMA      CLEAR     55  34  44 S5        30.17S
WINCHESTER     CLEAR     55  36  47 CALM      30.19S
$$

...SURROUNDING SITES...

CITY           SKY/WX    TMP DP  RH WIND       PRES   REMARKS
ATLANTA        FAIR      58  40  51 SW6       30.21S
ANNISTON       FAIR      56  37  49 SW6       30.23R
BIRMINGHAM     FAIR      60  37  42 S5        30.23S
CHATTANOOGA    FAIR      58  36  43 S3        30.21R
CORINTH        CLOUDY    61  43  51 S8        30.14R
DALTON         FAIR      54  34  47 CALM      30.23S
GADSDEN        FAIR      58  36  43 S5        30.22S
GOLDEN TRNGL   MOCLDY    62  41  46 SE9       30.18S
HALEYVILLE     FAIR      59  36  42 S6        30.20S
JACKSON TN     CLOUDY    57  44  62 S5        30.11S
MEMPHIS        MOCLDY    56  51  84 S7        30.10S
NASHVILLE      FAIR      58  32  37 S9        30.15R
OXFORD MS      CLOUDY    59  50  72 SW3       30.15R HAZE
ROME           FAIR      55  37  50 S3        30.21S
SAVANNAH       CLOUDY    61  43  51 S8        30.14S
SELMER         CLOUDY    61  43  51 S8        30.13S
TUPELO         CLOUDY    62  39  42 SE8       30.15S
TUSCALOOSA     FAIR      62  37  39 S8        30.21R
$$

...GULF COAST WEATHER...

CITY           SKY/WX    TMP DP  RH WIND       PRES   REMARKS
GULFPORT       FAIR      60  46  59 E12       30.23R
PASCAGOULA     FAIR      59  45  59 SE10      30.24S
MOBILE         FAIR      60  45  57 S9        30.24S
GULF SHORES    CLOUDY    57  46  66 SE3       30.25S
PENSACOLA      FAIR      57  45  64 CALM      30.25R
DESTIN         FAIR      63  43  48 S5        30.25R
PANAMA CITY    DRIZZLE   55  44  65 S5        30.25F
APPALACHICOLA  FAIR      55  37  50 CALM      30.25F
$$





USA.gov is the U.S. government's official web portal to all federal, state and local government web resources and services.